When you browse on this site, cookies collect data to enhance your experience and personalize the content and advertising you see.
Visit our Privacy Policy to learn more. By continuing to use the site, you agree to this use of cookies and data.
  • In Hungary
  • List of Countries
  • For 7 days
  • Water Temperature
  • Weather Map
  • News
  • Weather Widgets
  • user-avatar
    Login

    Hourly Weather Bieszkowice

    Today, 7 December, Saturday

    Time Temperature Precipitation Wind Pressure Humidity
    00:00 0°C° 0.1 mm 7 mps 735 mmHg 87%
    01:00 0°C° 0.1 mm 7 mps 735 mmHg 87%
    02:00 0°C° 0.1 mm 7 mps 734 mmHg 88%
    03:00 0°C° 0.1 mm 7 mps 734 mmHg 88%
    04:00 0°C° 0.1 mm 7 mps 733 mmHg 88%
    05:00 +2°C° 0.4 mm 7 mps 733 mmHg 89%
    06:00 +2°C° 0.4 mm 7 mps 733 mmHg 90%
    07:00 +2°C° 0.4 mm 7 mps 732 mmHg 91%
    08:00 +3°C° 0.5 mm 7 mps 732 mmHg 90%
    09:00 +3°C° 0.5 mm 7 mps 732 mmHg 89%
    10:00 +4°C° 0.5 mm 7 mps 731 mmHg 88%
    11:00 +4°C° 0.4 mm 8 mps 731 mmHg 89%
    12:00 +4°C° 0.4 mm 8 mps 731 mmHg 89%
    13:00 +5°C° 0.4 mm 8 mps 731 mmHg 89%
    14:00 +3°C° 0.1 mm 9 mps 732 mmHg 82%
    15:00 +3°C° 0.1 mm 10 mps 732 mmHg 75%
    16:00 +3°C° 0.1 mm 10 mps 733 mmHg 68%
    17:00 +3°C° 0 mm 10 mps 733 mmHg 68%
    18:00 +3°C° 0 mm 10 mps 734 mmHg 68%
    19:00 +2°C° 0 mm 9 mps 734 mmHg 67%
    20:00 +2°C° 0 mm 9 mps 735 mmHg 68%
    21:00 +2°C° 0 mm 9 mps 735 mmHg 68%
    22:00 +1°C° 0 mm 9 mps 735 mmHg 68%
    23:00 +1°C° 0 mm 8 mps 736 mmHg 70%

    Tomorrow, 8 December, Sunday

    Time Temperature Precipitation Wind Pressure Humidity
    00:00 +2°C° 0 mm 7 mps 736 mmHg 73%
    01:00 +2°C° 0 mm 7 mps 737 mmHg 75%
    02:00 +2°C° 0 mm 6 mps 736 mmHg 79%
    03:00 +2°C° 0 mm 5 mps 736 mmHg 84%
    04:00 +2°C° 0 mm 5 mps 736 mmHg 88%
    05:00 +2°C° 0.1 mm 5 mps 736 mmHg 90%
    06:00 +2°C° 0.1 mm 5 mps 736 mmHg 91%
    07:00 +3°C° 0.1 mm 5 mps 736 mmHg 93%
    08:00 +3°C° 0.2 mm 6 mps 736 mmHg 90%
    09:00 +3°C° 0.2 mm 6 mps 736 mmHg 87%
    10:00 +4°C° 0.2 mm 6 mps 735 mmHg 84%
    11:00 +4°C° 0 mm 7 mps 735 mmHg 82%
    12:00 +4°C° 0 mm 7 mps 734 mmHg 79%
    13:00 +5°C° 0 mm 8 mps 733 mmHg 77%
    14:00 +4°C° 0 mm 8 mps 733 mmHg 77%
    15:00 +4°C° 0 mm 8 mps 732 mmHg 77%
    16:00 +4°C° 0 mm 8 mps 731 mmHg 78%
    17:00 +4°C° 0.2 mm 8 mps 730 mmHg 80%
    18:00 +5°C° 0.2 mm 9 mps 730 mmHg 83%
    19:00 +5°C° 0.2 mm 9 mps 729 mmHg 85%
    20:00 +5°C° 0.1 mm 8 mps 729 mmHg 84%
    21:00 +6°C° 0.1 mm 8 mps 729 mmHg 83%
    22:00 +6°C° 0.1 mm 8 mps 729 mmHg 82%
    23:00 +5°C° 0.1 mm 7 mps 729 mmHg 82%

    Day after tomorrow, 9 December, Monday

    Time Temperature Precipitation Wind Pressure Humidity
    00:00 +5°C° 0.1 mm 6 mps 729 mmHg 82%
    01:00 +5°C° 0.1 mm 5 mps 729 mmHg 82%
    02:00 +3°C° 0 mm 6 mps 729 mmHg 82%
    03:00 +3°C° 0 mm 6 mps 729 mmHg 82%
    04:00 +3°C° 0 mm 6 mps 729 mmHg 82%
    05:00 +3°C° 0.1 mm 6 mps 729 mmHg 82%
    06:00 +3°C° 0.1 mm 6 mps 729 mmHg 83%
    07:00 +3°C° 0.1 mm 7 mps 729 mmHg 84%
    08:00 +3°C° 0.1 mm 7 mps 729 mmHg 82%
    09:00 +3°C° 0.1 mm 7 mps 729 mmHg 80%
    10:00 +3°C° 0.1 mm 7 mps 730 mmHg 78%
    11:00 +3°C° 0 mm 7 mps 730 mmHg 75%
    12:00 +4°C° 0 mm 7 mps 730 mmHg 72%
    13:00 +4°C° 0 mm 6 mps 730 mmHg 70%
    14:00 +4°C° 0 mm 6 mps 730 mmHg 71%
    15:00 +4°C° 0 mm 6 mps 730 mmHg 73%
    16:00 +3°C° 0 mm 6 mps 729 mmHg 75%
    17:00 +3°C° 0 mm 6 mps 730 mmHg 76%
    18:00 +3°C° 0 mm 5 mps 730 mmHg 78%
    19:00 +2°C° 0 mm 5 mps 730 mmHg 79%
    20:00 +2°C° 0 mm 5 mps 730 mmHg 80%
    21:00 +2°C° 0 mm 5 mps 730 mmHg 81%
    22:00 +2°C° 0 mm 5 mps 730 mmHg 82%
    23:00 +2°C° 0.1 mm 5 mps 730 mmHg 83%

    10 December, Tuesday

    Time Temperature Precipitation Wind Pressure Humidity
    00:00 +2°C° 0.1 mm 5 mps 730 mmHg 84%
    01:00 +3°C° 0.1 mm 4 mps 730 mmHg 85%
    02:00 +3°C° 0.2 mm 4 mps 731 mmHg 88%
    03:00 +3°C° 0.2 mm 4 mps 731 mmHg 90%
    04:00 +3°C° 0.2 mm 4 mps 731 mmHg 92%
    05:00 +3°C° 0.2 mm 4 mps 732 mmHg 91%
    06:00 +3°C° 0.2 mm 4 mps 733 mmHg 90%
    07:00 +3°C° 0.2 mm 3 mps 733 mmHg 89%
    08:00 +2°C° 0.5 mm 5 mps 734 mmHg 90%
    09:00 0°C° 0.5 mm 7 mps 736 mmHg 91%
    10:00 0°C° 0.5 mm 9 mps 737 mmHg 92%
    11:00 0°C° 0.1 mm 9 mps 738 mmHg 85%
    12:00 -1°C° 0.1 mm 8 mps 739 mmHg 78%
    13:00 -1°C° 0.1 mm 8 mps 740 mmHg 71%
    14:00 -1°C° 0 mm 7 mps 742 mmHg 68%
    15:00 -2°C° 0 mm 7 mps 743 mmHg 65%
    16:00 -2°C° 0 mm 7 mps 744 mmHg 63%
    17:00 -2°C° 0 mm 6 mps 745 mmHg 64%
    18:00 -1°C° 0 mm 5 mps 746 mmHg 65%
    19:00 -2°C° 0 mm 5 mps 747 mmHg 66%
    20:00 -2°C° 0 mm 4 mps 747 mmHg 67%
    21:00 -1°C° 0 mm 3 mps 748 mmHg 69%
    22:00 -1°C° 0 mm 3 mps 748 mmHg 70%
    23:00 -1°C° 0 mm 3 mps 748 mmHg 70%

    11 December, Wednesday

    Time Temperature Precipitation Wind Pressure Humidity
    00:00 -1°C° 0 mm 3 mps 748 mmHg 69%
    01:00 -1°C° 0 mm 3 mps 749 mmHg 69%
    02:00 -1°C° 0 mm 3 mps 749 mmHg 69%
    03:00 -1°C° 0 mm 3 mps 749 mmHg 68%
    04:00 -1°C° 0 mm 3 mps 749 mmHg 68%
    05:00 -1°C° 0 mm 3 mps 749 mmHg 66%
    06:00 -1°C° 0 mm 3 mps 749 mmHg 64%
    07:00 -2°C° 0 mm 4 mps 748 mmHg 62%
    08:00 -2°C° 0 mm 4 mps 748 mmHg 58%
    09:00 -2°C° 0 mm 5 mps 748 mmHg 54%
    10:00 -3°C° 0 mm 6 mps 748 mmHg 49%
    11:00 -2°C° 0 mm 7 mps 748 mmHg 48%
    12:00 -2°C° 0 mm 7 mps 747 mmHg 46%
    13:00 -2°C° 0 mm 7 mps 747 mmHg 45%
    14:00 -2°C° 0 mm 7 mps 746 mmHg 46%
    15:00 -2°C° 0 mm 8 mps 746 mmHg 46%
    16:00 -2°C° 0 mm 8 mps 746 mmHg 47%
    17:00 -2°C° 0 mm 8 mps 745 mmHg 47%
    18:00 -2°C° 0 mm 8 mps 745 mmHg 46%
    19:00 -2°C° 0 mm 8 mps 745 mmHg 46%
    20:00 -4°C° 0 mm 8 mps 745 mmHg 48%
    21:00 -4°C° 0 mm 8 mps 744 mmHg 51%
    22:00 -4°C° 0 mm 8 mps 744 mmHg 53%
    23:00 -3°C° 0 mm 7 mps 744 mmHg 55%

    12 December, Thursday

    Time Temperature Precipitation Wind Pressure Humidity
    00:00 -3°C° 0 mm 7 mps 744 mmHg 58%
    01:00 -3°C° 0 mm 6 mps 743 mmHg 61%
    02:00 -3°C° 0 mm 6 mps 743 mmHg 63%
    03:00 -4°C° 0 mm 6 mps 743 mmHg 64%
    04:00 -4°C° 0 mm 6 mps 742 mmHg 66%
    05:00 -4°C° 0 mm 6 mps 742 mmHg 66%
    06:00 -3°C° 0 mm 6 mps 742 mmHg 65%
    07:00 -3°C° 0 mm 6 mps 742 mmHg 65%
    08:00 -2°C° 0 mm 5 mps 742 mmHg 66%
    09:00 -2°C° 0 mm 5 mps 742 mmHg 68%
    10:00 -2°C° 0 mm 5 mps 742 mmHg 69%
    11:00 -2°C° 0 mm 5 mps 741 mmHg 71%
    12:00 -2°C° 0 mm 5 mps 741 mmHg 73%
    13:00 -2°C° 0 mm 5 mps 741 mmHg 74%
    14:00 -2°C° 0.1 mm 5 mps 741 mmHg 77%
    15:00 -2°C° 0.1 mm 5 mps 741 mmHg 80%
    16:00 -2°C° 0.1 mm 5 mps 740 mmHg 83%
    17:00 -2°C° 0 mm 5 mps 740 mmHg 84%
    18:00 -2°C° 0 mm 5 mps 740 mmHg 85%
    19:00 -2°C° 0 mm 4 mps 740 mmHg 86%
    20:00 -2°C° 0 mm 4 mps 739 mmHg 87%
    21:00 -1°C° 0 mm 4 mps 739 mmHg 88%
    22:00 -1°C° 0 mm 4 mps 739 mmHg 89%
    23:00 -1°C° 0 mm 5 mps 738 mmHg 90%
    Show more